DEEEE EDXW-EDDH

Flight info

Callsign DEEEE
Flight time N/A
Altitude 4000
Route OLDIP1B OLDIP DCT BADOS DCT OMWEG DCT RIBSO RIBSO3P
Aircraft BE36/L-BDFGLORY/S

Departure

Time 2026-04-24 14:17
Airport Westerland Sylt Airport (EDXW)

Arrival

Time N/A
Airport Hamburg Helmut Schmidt Airport (EDDH)
Time Latitude Longitude Altitude Speed Heading
2026-04-24 14:04 54.91251 8.32516 19 ft 0 kts 243°
2026-04-24 14:11 54.91247 8.32509 19 ft 1 kts 202°
2026-04-24 14:11 54.91214 8.32540 19 ft 8 kts 134°
2026-04-24 14:11 54.91120 8.32677 19 ft 14 kts 149°
2026-04-24 14:12 54.91077 8.32801 21 ft 12 kts 106°
2026-04-24 14:12 54.91044 8.32930 23 ft 14 kts 122°
2026-04-24 14:12 54.90965 8.33083 21 ft 19 kts 144°
2026-04-24 14:12 54.90839 8.33196 24 ft 21 kts 165°
2026-04-24 14:13 54.90690 8.33230 28 ft 23 kts 176°
2026-04-24 14:13 54.90519 8.33261 27 ft 27 kts 165°
2026-04-24 14:13 54.90351 8.33430 24 ft 30 kts 135°
2026-04-24 14:13 54.90258 8.33757 23 ft 31 kts 98°
2026-04-24 14:14 54.90235 8.34115 23 ft 26 kts 85°
2026-04-24 14:14 54.90278 8.34386 27 ft 21 kts 59°
2026-04-24 14:14 54.90419 8.34658 31 ft 11 kts 43°
2026-04-24 14:15 54.90474 8.34747 31 ft 10 kts 43°
2026-04-24 14:15 54.90517 8.34815 32 ft 7 kts 43°
2026-04-24 14:15 54.90556 8.34879 32 ft 9 kts 43°
2026-04-24 14:15 54.90609 8.34918 31 ft 7 kts 346°
2026-04-24 14:16 54.90646 8.34884 30 ft 5 kts 324°
2026-04-24 14:16 54.90789 8.34707 30 ft 58 kts 324°
2026-04-24 14:16 54.91206 8.34153 211 ft 83 kts 321°
2026-04-24 14:17 54.92301 8.32808 682 ft 108 kts 326°
2026-04-24 14:17 54.92931 8.32044 916 ft 112 kts 326°
2026-04-24 14:17 54.93687 8.29791 1420 ft 132 kts 253°
2026-04-24 14:18 54.92883 8.28655 1497 ft 173 kts 210°
2026-04-24 14:18 54.91677 8.27963 1469 ft 192 kts 202°
2026-04-24 14:18 54.90428 8.27448 1509 ft 181 kts 201°
2026-04-24 14:18 54.89184 8.26989 1418 ft 181 kts 194°
2026-04-24 14:19 54.88352 8.26812 1340 ft 183 kts 191°
2026-04-24 14:19 54.86661 8.26550 1239 ft 181 kts 188°
2026-04-24 14:19 54.85420 8.26407 1219 ft 176 kts 189°
2026-04-24 14:19 54.84230 8.26230 1237 ft 172 kts 191°
2026-04-24 14:20 54.83036 8.26027 1229 ft 171 kts 191°
2026-04-24 14:20 54.81852 8.25907 1236 ft 170 kts 186°
2026-04-24 14:20 54.80652 8.25877 1211 ft 171 kts 186°
2026-04-24 14:20 54.79480 8.25886 1314 ft 167 kts 182°
2026-04-24 14:21 54.78322 8.25966 1309 ft 170 kts 182°
2026-04-24 14:21 54.77143 8.26051 1363 ft 169 kts 182°
2026-04-24 14:21 54.75984 8.26368 1427 ft 170 kts 162°
2026-04-24 14:21 54.74977 8.27419 1444 ft 170 kts 135°
2026-04-24 14:22 54.74148 8.28886 1449 ft 170 kts 130°
2026-04-24 14:22 54.73408 8.30464 1407 ft 172 kts 118°
2026-04-24 14:22 54.72206 8.33982 1470 ft 169 kts 113°
2026-04-24 14:23 54.71672 8.35791 1492 ft 167 kts 110°
2026-04-24 14:23 54.71144 8.37589 1499 ft 169 kts 112°
2026-04-24 14:23 54.70575 8.39379 1527 ft 169 kts 116°
2026-04-24 14:23 54.69964 8.41101 1546 ft 170 kts 118°
2026-04-24 14:24 54.69286 8.42800 1565 ft 172 kts 122°
2026-04-24 14:24 54.68547 8.44458 1540 ft 176 kts 126°
2026-04-24 14:24 54.67810 8.46155 1478 ft 180 kts 120°
2026-04-24 14:24 54.67139 8.47983 1460 ft 178 kts 118°
2026-04-24 14:25 54.66710 8.49182 1436 ft 178 kts 116°
2026-04-24 14:25 54.66009 8.51686 1556 ft 167 kts 104°
2026-04-24 14:25 54.65713 8.53631 1462 ft 171 kts 91°
2026-04-24 14:25 54.65665 8.55642 1483 ft 163 kts 79°
2026-04-24 14:26 54.65670 8.57592 1483 ft 165 kts 86°
2026-04-24 14:26 54.65480 8.59588 1405 ft 167 kts 101°
2026-04-24 14:26 54.65120 8.61351 1528 ft 151 kts 99°
2026-04-24 14:26 54.64808 8.63125 1398 ft 157 kts 101°
2026-04-24 14:27 54.64485 8.64924 1270 ft 160 kts 100°
2026-04-24 14:27 54.64148 8.66767 1151 ft 162 kts 105°
2026-04-24 14:27 54.63595 8.68463 1123 ft 161 kts 120°
2026-04-24 14:27 54.62951 8.70025 1120 ft 158 kts 129°
2026-04-24 14:28 54.62174 8.71362 1118 ft 157 kts 134°
2026-04-24 14:28 54.61393 8.72684 1115 ft 156 kts 135°
2026-04-24 14:28 54.60617 8.73992 1116 ft 156 kts 135°
2026-04-24 14:28 54.59841 8.75304 1114 ft 156 kts 135°
2026-04-24 14:29 54.59076 8.76595 1122 ft 155 kts 134°
2026-04-24 14:29 54.58718 8.78032 1435 ft 116 kts 64°
2026-04-24 14:29 54.59263 8.78807 1459 ft 99 kts 358°
2026-04-24 14:29 54.59764 8.78239 1557 ft 100 kts 289°
2026-04-24 14:30 54.59712 8.77412 1609 ft 108 kts 267°
2026-04-24 14:30 54.59728 8.75672 1594 ft 107 kts 294°
2026-04-24 14:30 54.59998 8.74462 1387 ft 105 kts 297°
2026-04-24 14:30 54.60259 8.73348 1227 ft 100 kts 297°
2026-04-24 14:31 54.60491 8.72275 1161 ft 89 kts 301°
2026-04-24 14:31 54.60762 8.71352 1104 ft 81 kts 302°
2026-04-24 14:31 54.60957 8.70571 949 ft 64 kts 300°
2026-04-24 14:31 54.61090 8.69918 869 ft 48 kts 306°
2026-04-24 14:32 54.61197 8.69626 835 ft 40 kts 313°
2026-04-24 14:32 54.61351 8.69056 768 ft 42 kts 302°
2026-04-24 14:32 54.61462 8.68543 868 ft 50 kts 304°
2026-04-24 14:32 54.61600 8.68145 952 ft 65 kts 313°
2026-04-24 14:33 54.62022 8.67659 1100 ft 85 kts 333°
2026-04-24 14:33 54.62582 8.67230 1237 ft 91 kts 332°
2026-04-24 14:33 54.63122 8.66778 1609 ft 65 kts 329°
2026-04-24 14:33 54.63579 8.66182 1557 ft 96 kts 320°
2026-04-24 14:34 54.64128 8.65355 1399 ft 111 kts 322°
2026-04-24 14:34 54.64735 8.64609 1189 ft 102 kts 325°
2026-04-24 14:34 54.65326 8.63952 924 ft 100 kts 328°
2026-04-24 14:34 54.65869 8.63350 891 ft 86 kts 326°
2026-04-24 14:35 54.66365 8.62784 823 ft 86 kts 325°
2026-04-24 14:35 54.66847 8.62202 796 ft 82 kts 324°
2026-04-24 14:35 54.67314 8.61638 760 ft 80 kts 326°
2026-04-24 14:35 54.67763 8.61146 802 ft 74 kts 327°
2026-04-24 14:36 54.68162 8.60577 770 ft 78 kts 306°
2026-04-24 14:36 54.68175 8.59559 681 ft 89 kts 272°
2026-04-24 14:36 54.68080 8.58605 645 ft 75 kts 277°
2026-04-24 14:36 54.68106 8.57797 573 ft 65 kts 289°
2026-04-24 14:37 54.68156 8.57022 491 ft 64 kts 296°
2026-04-24 14:37 54.68244 8.56262 404 ft 66 kts 284°
2026-04-24 14:37 54.68304 8.55502 323 ft 62 kts 288°
2026-04-24 14:37 54.68361 8.54742 189 ft 64 kts 283°
2026-04-24 14:38 54.68384 8.53996 84 ft 59 kts 287°
2026-04-24 14:38 54.68455 8.53416 30 ft 20 kts 276°
2026-04-24 14:38 54.68400 8.53357 29 ft 14 kts 120°
2026-04-24 14:38 54.68384 8.53523 30 ft 15 kts 126°
2026-04-24 14:39 54.68353 8.53528 30 ft 11 kts 232°
2026-04-24 14:39 54.68351 8.53392 29 ft 11 kts 277°
2026-04-24 14:39 54.68348 8.53315 27 ft 4 kts 255°
2026-04-24 14:39 54.68345 8.53287 27 ft 0 kts 277°